Wind_Speed
22 22 22 21 19 19 18 17 18 18 16 14 14 14 12 12 12 12 12 11 11 12 11 10 11 12 12 11 10 10 10 10 10 9 9 9 8 9 9 8 7 6 6 7 8 8 7 8 8 8 9 8 7 5 7 7 6 8 7 5 7 9 9 9 11 13 14 13 13 13 12 11 12 12 13 14 13 13 16 15 13 14 15 15 16
23 22 22 21 19 18 18 17 17 18 16 15 14 14 13 12 11 10 11 11 11 11 10 10 10 10 11 11 11 10 10 9 9 9 9 9 9 9 9 7 5 4 5 6 7 7 8 8 8 7 6 6 4 4 5 6 7 8 7 5 5 6 8 10 10 13 15 15 14 14 13 13 14 13 13 14 15 15 16 14 12 13 14 15 17
23 22 22 21 19 17 17 18 18 17 16 15 15 14 13 12 10 10 10 11 11 11 10 10 10 9 10 10 9 10 10 9 9 9 9 9 9 9 9 7 6 6 6 7 7 6 6 7 6 3 2 3 5 7 7 6 6 6 6 6 6 6 8 10 10 11 14 15 15 14 15 15 15 15 15 15 15 15 15 14 14 13 12 14 18
23 21 21 22 21 19 17 17 17 17 17 15 15 14 11 10 11 10 9 10 11 11 10 10 9 8 9 10 9 10 10 9 9 9 8 9 8 8 9 8 9 8 7 6 7 5 5 5 5 3 3 5 7 9 8 5 4 5 6 6 7 6 6 8 9 10 12 13 13 13 15 16 17 18 17 16 16 15 15 15 15 12 12 16 20
23 20 20 22 22 20 18 17 16 16 16 14 14 14 13 12 12 11 9 10 11 10 10 10 11 10 9 12 13 13 12 10 10 9 9 9 8 7 8 9 11 11 9 8 8 7 6 7 6 5 6 7 8 9 7 4 5 7 7 7 7 8 9 9 9 9 10 12 13 15 16 17 18 18 15 15 17 15 14 15 14 12 13 17 20
23 20 20 22 22 20 19 19 17 14 14 14 12 12 13 14 13 11 11 11 11 11 10 10 13 13 11 11 14 14 13 12 12 10 9 9 9 8 8 9 10 11 10 9 7 6 5 5 5 5 6 7 8 8 7 5 7 9 9 8 8 9 10 10 9 9 11 13 15 17 16 16 17 16 13 14 18 18 17 17 14 12 15 19 22
23 21 20 20 21 21 18 18 17 15 14 15 14 11 11 12 12 11 12 13 13 12 12 12 13 14 14 13 13 13 12 12 12 12 11 10 11 11 10 9 9 9 8 7 6 5 6 7 8 8 10 11 12 12 10 8 8 9 9 9 10 11 12 13 12 13 15 16 16 16 15 15 16 16 14 14 17 19 19 19 17 16 19 22 25
23 22 21 20 20 22 20 18 17 16 14 14 15 14 13 12 11 10 11 13 13 13 14 14 14 15 15 14 12 12 11 11 11 12 11 11 13 14 12 11 10 9 8 8 7 7 8 9 10 12 13 14 14 14 13 11 11 11 11 12 13 14 14 14 16 17 18 17 16 15 16 16 16 17 16 17 19 19 19 20 21 23 25 26 27
23 23 22 20 19 21 22 20 19 18 16 13 14 16 15 14 13 12 11 11 12 13 13 13 13 14 15 13 12 12 13 13 12 12 11 11 13 14 13 11 9 8 9 9 9 10 10 10 10 10 12 12 11 11 13 14 15 15 13 14 15 16 16 17 18 18 17 16 17 17 18 18 18 18 19 20 21 21 22 23 24 25 27 28 28
24 24 23 21 20 19 20 22 21 20 18 14 15 17 16 13 13 14 14 13 12 12 13 13 13 12 11 11 10 11 13 14 14 13 12 10 9 11 12 12 10 9 9 10 11 11 12 12 12 12 11 11 10 11 12 12 13 14 14 15 16 17 17 17 17 16 16 18 18 19 19 19 19 19 19 20 21 22 23 24 25 27 28 29 29
25 25 25 23 21 20 18 19 21 21 19 16 15 18 19 16 13 12 14 15 14 13 12 12 11 10 10 10 11 12 13 14 14 13 12 10 9 9 10 10 11 11 12 12 12 11 11 11 12 12 13 12 11 12 12 10 10 13 14 15 16 16 16 16 16 17 18 19 19 18 19 19 18 17 18 19 20 22 24 24 26 27 28 30 32
25 24 26 26 24 23 20 18 18 21 22 20 18 19 20 19 17 13 14 16 16 15 15 12 11 11 11 11 13 16 16 15 14 12 12 12 11 11 11 11 11 12 13 13 12 10 9 9 9 10 13 15 14 15 14 12 12 13 14 14 14 15 16 16 16 16 16 17 19 19 19 19 19 17 18 20 22 23 25 25 25 27 28 30 31
27 26 28 29 27 26 23 21 20 22 25 25 24 23 22 22 22 19 16 16 17 18 19 19 17 16 14 12 13 15 16 16 15 15 15 15 14 14 14 14 15 15 15 14 14 12 12 11 10 11 13 15 16 17 17 16 16 15 15 15 15 14 16 17 16 15 15 17 19 20 20 20 20 20 20 23 25 26 26 26 27 28 29 30 31
31 33 33 33 31 28 26 25 23 23 25 26 26 26 26 25 24 24 22 20 19 19 20 21 21 21 20 19 18 16 16 15 14 15 16 16 16 16 17 18 19 19 18 18 17 17 17 17 16 15 16 16 16 17 17 18 18 18 18 18 16 15 17 18 18 18 19 20 21 22 22 21 22 22 22 23 25 26 27 28 28 28 30 31 31
34 37 36 34 32 30 28 28 27 25 25 25 26 26 26 24 24 25 25 25 24 24 23 22 22 23 24 24 24 22 21 20 18 17 16 16 16 17 19 20 21 20 19 19 20 19 19 20 20 20 20 20 20 20 20 20 20 20 20 19 18 17 18 19 20 22 23 24 24 24 23 24 24 24 23 24 25 26 27 27 27 29 30 31 30
31 32 32 29 29 29 29 29 28 27 26 25 25 25 25 24 23 25 26 27 27 27 26 25 24 24 24 25 25 25 25 25 24 23 22 20 18 18 20 21 21 21 21 21 21 21 20 20 21 21 21 22 22 22 22 22 21 21 20 19 19 19 20 21 23 24 25 25 24 24 24 24 24 23 23 24 25 26 27 27 27 28 28 27 25
24 24 24 23 25 26 28 28 27 26 25 25 26 26 25 24 23 23 24 25 26 25 25 25 25 24 25 25 24 25 25 24 25 26 25 24 22 21 21 21 22 22 22 22 21 21 20 20 21 22 23 24 24 24 24 23 22 22 21 21 21 21 22 24 24 25 25 25 24 24 24 23 23 23 23 24 26 27 27 27 26 24 22 21 21
20 21 21 21 22 23 24 25 24 24 23 24 25 24 23 23 22 21 21 22 23 23 23 23 24 24 26 26 26 25 25 24 25 26 25 24 23 23 23 22 22 21 21 22 21 21 21 21 21 22 22 23 23 23 23 23 23 22 22 22 22 22 23 24 24 24 23 23 22 22 22 22 23 23 23 24 24 24 23 21 19 17 17 18 19
20 22 23 22 21 21 20 19 20 20 21 22 22 23 24 24 23 22 22 21 21 22 23 24 25 26 27 27 28 27 27 27 26 26 26 24 23 23 23 23 22 22 22 22 22 22 23 22 22 22 22 22 22 22 22 21 21 21 21 21 21 21 21 21 21 21 20 19 18 18 18 18 18 18 18 18 18 18 17 15 14 14 16 17 17
19 21 22 21 21 20 17 16 16 17 18 19 19 20 22 22 21 22 22 21 21 22 23 24 25 25 26 26 26 27 28 27 26 26 26 24 23 22 21 21 21 22 21 20 19 20 20 21 21 21 20 20 20 20 20 20 19 19 19 18 18 17 17 16 16 16 15 14 13 12 11 11 11 12 12 13 13 13 12 12 13 13 14 15 15
11 12 12 13 16 16 14 14 14 13 11 11 12 14 15 15 18 21 20 18 17 17 15 14 15 18 19 20 21 23 23 23 22 22 21 20 18 18 18 17 16 16 15 14 13 13 15 17 17 17 16 16 16 17 16 16 15 14 13 13 12 11 11 10 10 10 11 10 8 8 7 7 8 9 10 11 10 10 11 11 11 10 10 11 12
11 9 9 9 10 9 7 8 9 8 6 7 9 11 11 11 13 14 13 11 9 7 5 2 4 7 10 11 12 13 13 13 14 13 13 13 13 13 14 13 11 12 13 12 11 10 12 13 12 11 10 10 10 10 10 10 9 8 8 7 7 6 6 6 7 7 8 6 6 7 8 8 9 10 11 11 11 11 11 10 9 8 8 9 10
12 12 12 12 12 11 11 11 10 12 15 16 16 17 17 15 14 14 13 12 10 9 8 6 4 3 2 3 3 2 2 4 5 5 5 7 9 9 10 11 11 11 11 12 12 11 11 11 10 10 9 9 9 8 7 7 7 7 6 5 4 3 4 5 6 7 7 5 7 10 11 10 11 11 12 13 13 13 13 12 11 11 11 10 10
11 12 13 13 14 14 15 16 17 16 15 14 13 15 15 15 15 14 13 12 11 10 7 5 6 6 6 5 5 4 4 4 4 5 5 7 8 7 8 9 10 10 10 10 11 10 10 9 9 10 10 9 9 8 7 7 7 6 5 3 2 2 4 5 7 7 8 9 12 14 13 12 12 13 14 14 14 14 14 14 14 14 13 13 13
8 11 12 11 12 11 11 12 13 13 12 11 10 11 13 13 13 13 14 15 13 10 7 5 3 3 3 3 4 3 3 3 3 4 4 4 3 3 5 7 8 9 10 11 11 10 9 9 9 9 9 9 9 8 6 7 7 5 4 2 2 3 6 8 9 11 12 14 15 14 13 13 14 15 15 14 13 14 16 16 15 15 15 15 13
7 10 12 11 11 12 11 10 9 10 11 12 10 9 11 11 10 11 13 14 14 10 7 7 6 2 0 2 5 4 3 1 1 2 2 1 2 2 4 5 7 8 10 11 12 11 10 10 10 10 9 7 6 4 5 6 6 6 5 4 4 6 8 9 11 13 13 14 14 14 15 16 17 16 14 12 12 14 16 15 15 14 14 13 11
6 9 11 11 11 12 10 7 7 8 9 9 9 9 9 8 8 9 9 8 9 8 6 6 7 5 5 7 8 6 4 4 5 5 5 5 5 4 4 4 5 7 8 10 11 11 11 10 10 8 6 3 0 2 3 2 2 4 5 3 2 5 8 9 10 11 11 11 13 15 17 19 18 15 12 11 11 13 13 13 13 12 12 11 9
6 8 9 8 10 11 7 6 7 6 5 6 7 6 6 5 5 8 8 6 6 8 8 7 8 7 7 8 8 6 5 6 8 9 9 10 9 8 8 7 7 7 8 8 8 9 9 8 6 3 1 1 2 1 2 2 5 4 2 2 3 4 6 8 9 10 11 12 14 16 18 19 18 14 11 11 12 13 12 11 11 11 10 10 9
7 8 8 9 12 11 7 6 8 7 5 6 7 6 6 5 4 6 7 8 8 9 9 9 9 9 9 9 8 8 8 9 10 11 11 11 11 11 11 11 11 12 12 11 9 8 6 4 0 1 2 1 2 3 3 3 7 6 5 5 6 8 9 10 11 12 14 15 17 19 20 20 17 14 12 13 13 13 12 11 11 11 11 11 10
8 7 8 10 13 13 9 7 7 6 5 5 6 6 6 6 5 5 6 8 9 9 9 9 9 9 9 9 10 11 11 11 11 12 12 13 13 14 14 14 14 14 14 12 10 8 4 1 2 2 3 1 4 6 5 5 6 7 6 7 9 11 12 13 14 15 17 18 19 20 20 19 16 14 13 13 12 12 12 12 12 12 12 12 11
6 7 7 10 13 14 12 9 7 5 5 5 6 6 6 5 5 5 6 8 9 10 10 10 12 12 12 12 12 12 12 12 12 12 13 14 16 17 17 17 17 16 14 12 10 7 4 3 3 1 1 4 6 7 8 9 9 9 10 10 11 13 15 16 17 17 19 19 19 18 17 15 14 13 11 10 11 11 12 12 11 11 11 12 13
4 5 7 9 12 14 13 10 7 6 6 6 5 5 5 6 5 5 5 7 8 9 10 11 13 15 16 17 17 17 16 16 16 17 17 18 19 19 19 18 17 16 14 10 7 4 2 4 2 1 3 5 7 8 10 11 11 12 13 14 14 15 17 17 18 19 20 20 19 17 14 12 12 11 10 11 11 12 12 12 12 12 12 14 15
5 3 4 7 11 13 14 13 11 8 8 8 6 4 3 4 4 4 3 2 3 3 4 4 5 7 11 13 14 15 16 16 17 18 18 17 17 16 15 14 12 9 5 3 2 2 5 5 2 3 5 6 7 8 10 11 11 12 12 13 13 14 15 16 17 18 18 17 14 11 10 10 10 10 11 12 13 13 14 14 14 13 14 14 15
7 4 3 6 10 11 11 13 14 12 10 10 9 7 5 4 4 4 3 2 1 2 2 3 3 2 2 4 6 8 9 10 11 11 10 10 10 9 7 6 4 1 4 5 6 6 6 4 2 4 6 7 7 8 9 10 11 11 11 12 12 14 16 17 17 17 14 12 10 9 9 9 8 9 11 12 13 14 14 13 13 13 14 15 17
9 6 3 5 9 10 9 11 14 15 13 12 10 9 8 6 4 3 3 3 3 3 3 3 3 3 4 5 5 6 7 8 7 6 5 6 6 6 4 1 3 6 6 5 5 5 3 1 3 5 7 8 8 8 9 10 11 12 13 13 13 14 15 15 15 14 11 10 10 9 9 8 9 9 11 12 13 14 14 14 15 15 16 17 19
8 7 5 6 8 10 10 10 10 11 11 12 12 11 10 9 7 6 4 2 2 3 3 2 3 3 4 5 6 6 7 7 6 5 4 4 5 6 6 5 5 5 4 3 1 2 3 5 7 9 10 10 10 10 11 11 12 13 13 12 12 11 12 12 12 11 10 8 8 9 10 12 13 14 15 15 16 16 16 17 17 17 18 19 20
9 8 8 9 11 11 10 9 9 9 9 10 11 12 12 12 11 10 9 7 5 4 3 3 3 4 3 4 5 5 6 6 5 4 4 3 3 6 8 9 6 3 2 2 2 6 8 9 10 11 12 13 13 13 12 12 13 13 12 10 9 9 9 10 11 12 11 11 12 13 13 14 15 16 17 17 17 17 18 18 18 19 19 21 21
10 9 9 10 10 9 7 6 7 7 7 7 8 10 12 13 12 12 12 10 8 6 4 3 4 4 4 4 5 5 4 4 4 4 4 3 1 2 6 7 4 1 4 5 7 10 11 12 13 13 13 14 16 16 15 14 14 14 13 11 8 6 8 11 13 13 12 12 14 15 15 16 16 16 16 17 17 18 19 20 22 23 24 23 23
12 10 10 10 9 7 6 6 6 6 6 6 6 8 9 10 10 10 9 8 6 5 4 5 6 6 6 5 5 5 5 4 4 4 5 6 5 4 3 3 2 5 8 10 11 12 13 13 15 15 14 14 15 16 17 16 15 15 14 13 10 9 9 11 12 13 14 14 15 17 18 18 18 17 17 19 20 21 23 24 25 25 24 23 22
13 12 12 12 11 9 8 8 7 5 4 4 4 5 6 6 6 7 7 7 7 6 6 7 8 9 8 7 7 7 7 6 6 7 9 11 11 10 8 8 8 10 12 14 14 14 14 15 15 16 16 15 16 17 18 18 17 17 17 16 15 13 13 13 13 14 15 17 18 19 20 20 21 21 21 22 23 24 25 25 24 22 20 20 20
14 14 13 13 12 11 9 8 8 7 6 6 6 7 8 9 9 8 8 8 8 8 8 8 7 8 8 8 8 9 9 10 12 13 14 16 16 13 11 13 15 15 16 17 17 17 18 18 18 18 18 18 18 18 19 20 20 20 20 20 20 19 18 17 17 18 18 19 21 22 23 23 24 24 24 24 25 25 24 23 21 19 18 18 18
15 16 16 15 14 13 12 11 11 10 10 10 10 11 11 11 10 8 7 6 7 8 10 9 8 8 8 9 10 12 13 15 17 17 17 16 14 9 9 13 16 16 16 18 18 18 19 20 20 20 20 20 20 19 20 21 22 22 22 22 22 21 20 20 20 20 21 21 23 24 24 24 24 25 25 25 24 23 20 19 18 17 17 17 18
17 18 18 17 16 16 15 15 14 14 14 13 12 12 12 11 9 8 6 5 4 7 9 10 9 9 10 12 13 15 16 17 17 16 14 12 9 8 10 14 15 15 16 18 18 18 18 19 20 20 21 21 21 21 22 23 24 25 24 23 22 21 20 20 21 22 22 23 23 24 24 25 26 26 25 22 20 18 17 17 17 17 17 16 16
19 20 20 19 17 17 18 17 16 15 13 13 13 14 13 12 9 7 6 6 6 8 9 10 9 9 10 10 10 11 12 12 13 12 11 10 9 11 14 16 16 16 18 19 19 19 19 19 20 21 22 22 23 23 23 23 23 23 22 21 20 20 19 20 21 21 21 22 23 23 24 25 25 25 22 20 18 18 18 18 18 18 17 16 16
22 23 22 19 17 17 17 18 17 14 12 12 14 16 14 12 10 8 7 7 8 8 9 10 10 9 9 8 8 8 8 10 11 12 12 12 12 14 17 19 19 19 20 20 20 20 20 20 20 21 21 21 21 22 21 21 21 21 21 20 20 20 20 20 20 21 21 21 22 23 24 24 23 22 20 19 18 18 18 18 18 18 17 17 16
25 26 24 21 21 21 21 21 20 18 16 16 17 17 15 13 13 12 10 9 9 10 12 13 14 14 14 13 13 13 13 14 15 15 15 15 15 15 17 19 20 20 20 21 21 21 21 20 21 21 21 20 19 18 17 17 18 19 19 19 19 19 19 20 20 20 21 22 22 22 22 22 21 20 19 18 17 17 17 18 18 17 16 16 16
26 27 26 25 24 22 21 21 21 21 20 19 19 18 17 16 14 12 10 10 11 13 15 15 16 17 17 17 17 17 17 17 18 18 18 17 16 15 14 15 16 17 18 19 19 19 19 20 20 20 19 17 16 16 15 15 16 17 17 16 16 17 17 18 19 20 21 21 21 21 21 21 21 19 18 17 16 17 17 17 16 15 14 15 15
25 26 28 28 26 20 18 19 19 18 19 19 19 17 17 15 13 11 11 11 12 14 16 17 18 18 18 17 17 16 15 16 17 16 16 14 11 9 10 12 13 14 16 17 17 18 18 18 17 16 14 13 13 14 14 15 16 16 15 15 14 15 15 16 17 19 20 21 21 21 21 20 19 18 17 16 16 17 17 16 15 13 13 14 15
22 24 28 31 30 26 23 22 20 16 16 17 17 16 15 14 13 14 14 14 14 15 15 16 16 16 15 13 11 11 12 13 13 12 11 8 6 7 10 12 13 14 15 16 17 18 18 17 15 12 11 11 12 12 13 13 14 14 13 13 14 14 16 17 18 19 21 22 22 21 20 18 17 17 17 16 16 16 16 14 13 13 13 14 15
18 20 23 27 31 30 29 26 23 21 20 19 18 17 17 16 16 15 15 15 15 14 14 14 13 12 11 10 9 10 12 11 8 6 7 8 10 12 14 15 15 16 16 17 18 19 18 15 12 9 9 9 9 10 11 11 12 12 13 14 15 16 17 18 20 21 22 22 21 19 18 17 17 16 16 16 16 15 14 13 12 13 14 15 16
16 17 19 23 27 28 26 23 21 22 22 21 19 18 18 16 14 13 13 15 15 15 14 13 11 10 10 10 10 9 9 7 6 8 10 11 12 14 15 15 16 16 16 17 18 17 14 10 8 8 9 9 8 9 11 12 12 14 15 16 17 18 19 20 22 22 21 19 18 18 17 17 16 16 15 15 15 14 12 11 12 13 15 15 16
Wind_Direction
193 194 194 196 196 196 195 192 191 193 196 192 192 196 194 194 196 196 197 198 200 206 209 209 210 213 216 217 221 223 219 218 219 219 220 223 227 229 231 237 236 229 232 240 242 240 245 253 256 261 263 262 268 258 229 223 254 276 278 284 303 308 306 305 309 316 321 325 328 337 345 341 340 346 348 351 355 355 352 349 344 342 345 352 354
196 196 194 197 199 200 197 194 193 195 195 192 193 196 195 192 194 195 200 206 206 207 214 218 213 211 214 215 218 220 215 217 223 223 225 225 227 233 235 240 250 256 256 254 249 244 249 259 266 269 266 268 290 293 249 238 262 284 287 285 295 301 301 303 307 314 318 325 336 345 350 351 353 358 359 353 347 347 351 353 351 349 353 358 354
198 199 195 193 197 205 204 198 196 195 194 195 194 192 191 191 193 198 205 214 216 212 215 222 217 212 214 213 216 223 218 218 225 228 229 227 228 234 235 237 245 254 265 265 255 249 251 262 276 283 277 294 306 302 288 270 267 285 297 296 292 296 306 307 308 309 313 324 338 344 344 347 348 347 346 342 340 341 341 340 339 339 345 347 342
202 205 196 189 194 206 207 201 200 199 195 196 192 185 190 202 205 208 210 210 213 216 218 219 222 226 216 207 219 236 234 229 231 232 231 229 228 232 234 238 244 251 262 263 252 254 267 277 293 311 301 287 277 278 286 280 269 290 299 295 293 298 308 308 304 305 310 321 330 333 335 336 334 334 334 335 337 338 336 335 334 331 335 339 335
205 208 198 191 195 203 202 200 206 205 197 196 194 187 193 210 216 214 212 210 209 213 216 211 219 237 231 213 219 234 239 238 238 236 234 234 234 236 236 239 246 252 260 266 259 255 263 272 279 276 274 279 278 281 289 284 285 292 284 276 283 291 298 300 297 298 305 312 316 321 326 327 326 330 335 341 344 342 338 339 342 340 334 330 325
206 210 203 198 199 202 200 197 203 207 198 199 204 200 197 207 217 212 208 219 220 214 213 208 212 231 243 233 225 229 235 238 241 243 239 237 245 256 254 246 247 250 259 269 270 264 270 286 299 298 300 308 310 309 309 291 278 276 270 273 281 286 292 294 292 295 299 302 307 315 322 327 329 332 342 349 344 340 336 336 341 339 327 320 318
206 211 211 209 203 202 203 198 197 203 203 199 204 213 211 209 218 217 213 221 224 217 219 218 215 224 238 242 237 235 239 241 243 246 239 230 239 254 261 260 259 260 265 276 286 291 295 303 305 306 309 311 308 306 304 299 290 284 283 290 295 291 289 288 289 295 300 303 309 318 325 330 332 334 342 342 333 330 331 330 329 324 318 316 319
206 212 217 218 207 201 203 200 194 199 208 204 198 206 219 223 227 228 223 224 224 222 224 224 222 227 235 239 235 234 242 247 248 249 241 227 229 240 250 256 259 262 262 266 279 285 285 291 295 297 301 304 303 301 297 293 296 300 302 305 307 303 296 290 290 292 297 304 314 321 324 324 327 330 332 327 322 321 323 321 317 316 315 317 320
207 212 217 222 216 208 204 202 197 195 204 212 204 202 213 227 233 231 229 229 229 228 228 227 229 232 234 234 232 232 238 244 247 248 248 241 236 239 243 245 253 263 262 257 259 262 265 272 276 281 292 299 301 301 297 292 293 299 305 307 307 305 300 295 294 295 300 309 316 318 316 317 320 321 319 317 316 315 314 313 314 317 319 319 320
206 214 219 221 224 220 209 205 203 195 197 211 213 207 207 215 224 228 229 230 231 231 230 231 234 236 235 237 240 239 237 239 242 242 244 248 246 247 248 246 246 256 262 259 257 258 262 262 256 257 274 289 290 287 289 292 291 294 301 306 307 305 302 300 299 301 304 307 310 311 310 311 314 315 313 312 311 310 311 314 318 322 323 321 322
202 212 219 219 221 222 216 212 206 197 199 209 213 212 214 215 214 212 214 218 224 229 231 236 240 239 242 246 245 241 239 241 243 241 239 239 242 250 257 251 245 246 252 256 259 265 271 271 266 266 273 279 279 276 278 283 284 284 289 298 303 302 301 303 303 302 302 302 303 303 304 307 310 311 309 306 305 307 311 315 318 321 323 323 325
202 207 215 217 216 215 215 215 208 201 204 209 209 211 218 222 220 207 195 197 205 211 215 219 220 222 233 240 235 235 242 247 248 245 241 239 240 248 254 252 247 249 251 251 252 261 273 278 280 278 272 271 273 275 276 277 278 277 278 285 291 293 297 302 302 299 299 299 299 300 302 303 304 303 302 301 303 307 310 312 314 316 320 322 322
211 209 211 214 214 211 211 213 210 206 207 209 209 210 214 220 223 218 206 199 200 204 210 215 217 220 229 236 236 236 240 245 246 245 245 246 247 247 245 244 245 252 258 257 254 257 259 259 263 267 267 268 272 275 277 278 281 282 281 281 283 286 291 297 298 297 298 298 299 301 303 303 302 301 302 303 304 306 307 308 310 313 316 318 318
213 213 212 213 212 210 209 212 213 211 210 211 213 215 218 220 222 222 222 219 214 212 216 221 225 229 231 236 242 245 244 242 241 241 242 245 248 247 244 241 243 250 259 263 266 267 260 254 255 260 265 268 271 275 276 277 279 282 284 286 283 281 284 289 291 292 293 295 297 299 300 300 300 301 302 302 302 303 303 304 307 310 313 314 314
211 212 211 211 210 209 208 211 216 216 214 215 217 219 222 223 223 225 229 230 228 226 227 228 232 235 235 235 238 243 246 248 248 248 246 245 247 246 244 242 243 248 256 262 268 271 264 257 255 258 262 266 270 272 274 276 277 279 284 286 282 277 278 282 285 287 291 294 297 298 299 300 299 299 300 300 300 300 300 301 305 308 309 309 310
210 210 209 209 210 211 211 212 217 218 216 216 219 221 222 224 224 223 226 231 233 233 233 233 234 236 235 236 238 240 243 247 250 254 255 253 250 246 243 243 245 249 255 261 268 272 267 259 257 260 263 267 270 273 275 277 279 281 284 285 281 275 274 276 279 284 288 292 293 295 298 298 298 298 298 298 298 298 298 300 302 303 305 307 312
208 210 211 211 210 213 216 217 218 218 216 215 219 223 223 223 223 222 224 228 232 234 237 237 237 236 236 237 240 241 242 244 247 251 253 253 251 247 244 246 247 251 257 263 269 272 268 263 262 264 267 268 271 274 277 278 279 280 283 284 281 277 275 276 280 284 287 289 290 292 293 292 292 292 293 294 294 294 296 299 301 304 309 316 323
209 212 217 216 214 216 218 218 218 218 216 215 216 219 220 219 220 223 226 229 232 235 240 240 239 240 240 239 240 241 242 244 247 249 250 250 250 247 246 248 252 256 260 264 267 269 269 268 268 269 270 272 275 277 278 279 279 279 281 282 281 280 280 282 285 288 289 290 290 289 288 287 286 287 289 290 291 294 298 301 305 314 322 327 332
211 213 217 217 220 223 222 221 223 225 223 219 216 218 221 220 222 226 230 232 234 237 240 242 240 240 241 240 240 242 244 246 248 250 251 252 251 248 248 250 255 259 262 265 268 268 267 267 268 269 271 274 277 279 281 281 281 283 285 286 285 286 287 290 292 293 294 294 292 289 287 285 285 286 288 291 294 298 303 310 317 324 325 327 331
210 216 220 221 227 233 230 224 223 225 227 225 221 223 226 225 226 230 230 229 232 233 233 235 237 238 240 241 241 243 246 247 249 252 255 256 255 252 251 252 255 259 262 264 264 263 263 263 264 267 270 274 277 281 284 286 288 291 292 291 291 291 293 295 295 297 299 300 298 297 298 299 299 299 299 300 298 299 310 324 327 325 323 322 325
186 207 216 219 228 237 237 228 224 227 231 229 222 221 223 221 221 225 224 221 223 223 221 227 231 232 236 240 242 244 246 248 252 254 257 259 257 252 249 250 252 254 255 253 252 255 260 261 262 267 273 280 285 289 293 296 299 300 299 298 298 298 299 298 297 299 300 301 307 313 314 310 309 308 308 308 307 311 322 330 328 324 321 320 320
134 148 151 160 185 205 211 215 217 202 162 143 155 162 161 168 184 192 190 183 176 167 156 179 225 224 228 232 237 242 245 247 251 253 256 261 259 249 241 237 234 235 237 236 232 235 245 251 258 268 280 295 306 308 311 315 316 317 315 311 308 306 300 296 296 295 290 293 314 318 306 297 298 302 304 307 313 321 323 322 316 307 301 303 307
119 120 122 131 146 150 138 133 139 133 120 113 116 123 125 126 130 133 135 131 117 101 92 83 75 85 154 177 177 191 202 211 220 219 221 231 232 225 218 215 215 221 227 227 220 221 236 252 264 275 290 311 324 326 330 332 330 328 326 324 324 314 291 287 294 294 286 288 311 315 308 303 302 303 304 307 312 317 315 307 301 294 290 291 294
118 110 109 115 122 124 121 121 122 122 118 112 112 116 118 117 117 122 124 117 101 86 80 73 62 62 72 86 94 105 118 133 157 163 169 191 205 207 204 207 212 214 216 221 223 230 247 264 276 286 298 313 317 319 329 339 339 337 335 339 333 294 292 304 308 304 298 296 303 307 306 303 301 299 300 302 305 305 299 294 294 293 293 295 295
126 111 105 111 115 111 108 112 116 115 109 101 104 120 127 125 125 130 130 126 124 116 105 107 101 62 45 69 96 127 144 137 150 163 168 176 185 202 212 214 215 213 214 221 228 237 252 267 277 282 287 299 307 318 339 356 1 4 4 7 340 308 320 325 312 302 301 301 302 305 305 305 305 302 300 299 297 290 286 288 293 295 296 297 296
125 113 108 110 111 104 95 88 89 96 100 99 102 121 135 132 132 140 141 140 143 141 129 130 137 129 65 164 173 193 223 259 244 209 196 171 158 204 233 233 229 226 224 227 234 244 256 266 274 279 286 297 311 343 10 11 14 23 25 14 344 318 312 308 301 301 304 305 306 310 315 316 315 311 307 301 290 286 290 298 301 301 303 304 305
134 131 130 125 118 114 107 98 96 99 107 116 117 119 126 127 134 152 163 161 157 159 164 163 161 161 166 176 193 221 257 283 289 289 292 292 287 283 281 266 248 240 237 239 248 256 262 270 279 288 296 290 134 59 26 353 15 34 36 38 341 308 299 294 297 305 308 307 307 309 312 315 316 315 314 307 297 298 307 313 311 311 314 315 316
136 143 150 142 129 127 119 112 119 116 110 130 138 135 139 148 154 166 178 181 172 182 199 199 189 190 194 191 200 226 251 267 279 285 287 290 294 301 306 304 297 290 283 280 282 284 288 297 300 296 303 131 132 38 352 174 156 127 109 168 217 272 285 285 291 297 298 298 299 300 303 310 313 314 314 312 311 318 325 325 321 322 324 325 326
149 157 158 148 144 145 132 117 129 131 119 132 149 157 167 175 171 170 176 178 179 191 206 208 202 204 209 211 216 230 245 255 263 268 272 279 286 293 299 303 307 309 310 311 312 312 318 326 310 130 45 25 240 272 289 181 165 173 196 225 247 260 268 275 283 288 289 291 294 297 303 309 310 309 310 314 320 328 333 331 330 332 335 337 337
162 169 162 151 154 160 160 149 147 142 127 136 153 155 152 157 164 173 185 193 201 210 216 220 222 223 221 223 228 236 244 250 254 259 266 275 283 290 296 299 303 307 311 314 314 317 322 285 183 99 40 323 247 256 268 247 224 225 235 249 262 268 275 282 285 286 287 290 295 300 304 307 308 310 315 319 324 330 333 334 338 344 346 343 337
164 165 158 156 162 166 167 168 169 166 162 171 180 177 174 179 188 201 211 215 223 233 236 238 243 244 244 247 250 251 255 259 263 268 275 282 289 295 298 301 303 305 308 308 306 307 300 225 197 99 9 261 260 271 271 265 265 265 264 268 274 280 285 289 294 296 295 295 299 304 306 308 313 320 326 328 328 330 334 337 342 346 342 335 329
174 162 151 160 171 175 174 173 172 170 169 175 186 195 205 210 207 211 225 231 240 250 255 254 253 250 250 254 258 262 266 270 274 278 282 285 289 291 293 296 298 299 302 307 308 300 228 175 160 2 296 262 266 276 275 276 279 279 277 280 283 285 287 290 296 301 302 304 308 310 312 317 326 334 336 332 328 327 328 331 333 331 328 326 325
206 195 159 166 180 184 183 182 182 176 169 169 170 170 190 206 199 188 196 225 248 260 267 271 264 252 249 254 260 267 274 278 282 286 288 289 290 290 290 292 293 291 299 344 41 127 148 142 97 332 291 267 270 274 275 278 281 283 287 289 288 290 293 295 298 304 310 317 322 324 333 343 347 344 335 327 325 326 328 331 332 329 327 324 321
214 222 177 168 183 189 185 185 192 194 186 178 173 169 177 199 210 207 205 216 258 305 337 347 350 338 293 284 285 287 293 298 301 303 307 310 311 310 307 302 290 168 112 93 98 118 124 108 18 300 270 266 274 276 273 275 276 277 282 286 288 293 297 301 306 312 323 337 343 346 351 350 341 328 321 318 320 324 326 328 327 325 323 320 317
220 229 208 172 185 192 187 184 194 202 202 200 198 193 190 190 190 201 217 237 264 295 318 320 314 322 334 335 329 321 321 327 330 334 346 354 354 359 9 27 140 133 117 100 107 127 138 294 292 274 263 262 269 274 277 279 279 280 285 290 294 299 305 313 318 319 327 344 350 342 329 313 299 297 300 302 306 311 314 316 316 316 314 312 313
217 222 220 201 199 204 203 201 205 208 208 212 213 208 199 193 184 178 181 198 238 265 281 278 276 299 324 333 330 326 331 339 344 349 0 15 31 46 63 92 123 125 100 66 74 208 238 255 260 262 262 262 266 273 279 282 284 286 290 294 298 307 318 326 325 319 317 322 320 306 292 285 284 286 289 292 297 302 305 306 306 306 307 309 311
214 207 201 199 205 208 208 212 224 229 226 221 219 216 214 210 201 192 187 186 195 209 221 237 258 284 306 312 308 314 334 349 351 341 339 1 54 81 94 103 104 90 50 13 264 243 244 251 256 259 261 263 264 266 271 278 282 283 282 283 290 305 314 310 304 303 299 289 281 280 283 285 286 288 291 295 298 299 299 300 301 303 306 308 309
227 215 205 207 218 224 219 210 210 214 216 215 211 214 219 222 218 211 205 204 207 211 213 231 261 272 276 276 279 287 312 335 338 332 324 320 349 105 126 127 118 322 296 277 262 253 251 254 259 260 262 263 263 262 264 268 273 274 273 272 274 284 291 286 285 286 285 278 274 276 280 283 286 288 291 293 295 295 296 298 301 304 307 309 309
235 233 232 233 237 241 240 233 217 203 201 202 196 199 206 213 217 214 205 197 198 209 228 250 261 264 263 262 264 271 282 287 289 302 306 301 300 291 239 194 231 289 278 267 262 261 260 259 258 256 256 258 259 260 261 263 264 265 263 260 259 264 272 276 275 274 272 271 272 274 278 281 284 286 288 289 291 293 296 299 304 308 310 311 311
236 239 243 248 253 256 255 255 250 230 211 198 187 184 186 194 204 206 197 187 181 185 209 233 246 255 260 260 260 268 277 273 262 268 279 283 286 286 273 258 264 274 270 262 257 257 261 264 262 259 257 256 257 258 260 262 263 262 259 257 258 261 266 270 272 270 270 271 273 275 277 280 284 287 291 293 295 298 301 304 308 310 310 308 308
247 246 247 250 255 256 254 255 254 242 223 207 202 201 199 203 211 214 212 208 202 199 210 227 241 249 252 252 254 260 267 268 268 273 279 283 289 294 280 263 261 265 268 268 265 261 261 264 266 266 264 262 260 260 261 262 263 263 263 263 263 262 262 266 269 270 271 274 276 278 280 283 287 292 296 299 300 302 304 306 308 307 307 308 309
254 256 257 256 256 258 259 258 257 250 235 221 217 219 220 222 226 229 232 231 221 216 223 235 244 247 248 249 253 257 262 266 270 275 278 280 284 283 263 253 256 259 262 265 267 266 263 264 266 267 267 265 263 263 264 265 266 266 267 268 267 265 264 266 269 272 274 277 279 282 285 289 292 294 297 299 301 304 306 308 309 309 311 312 313
249 255 258 258 258 263 265 263 262 262 256 247 240 237 237 238 239 236 230 221 208 214 229 242 249 252 255 261 265 268 270 273 275 277 276 271 255 225 222 237 250 256 258 261 264 267 267 267 268 269 270 270 269 269 269 270 270 269 269 269 269 270 270 270 271 273 275 278 282 286 290 293 296 299 302 305 307 311 314 315 315 316 316 316 316
242 249 255 256 257 259 260 261 265 268 264 254 250 251 251 249 247 239 225 215 209 213 227 243 255 260 263 267 273 277 280 280 278 276 271 259 237 220 222 233 243 250 256 261 265 268 270 270 271 272 272 272 271 271 270 271 271 271 270 270 272 274 276 277 278 280 282 285 288 291 295 298 301 305 310 314 316 318 319 319 319 319 319 319 318
237 241 245 248 250 250 251 254 256 252 239 231 238 248 254 257 259 260 256 246 236 230 231 237 242 249 254 256 257 260 265 271 275 277 274 266 253 240 235 238 244 249 254 260 265 269 272 274 275 277 278 277 274 271 269 269 269 268 269 271 275 278 281 283 286 289 291 292 294 297 300 303 307 311 315 317 317 318 318 318 318 319 319 320 321
241 235 234 239 246 248 247 245 242 237 230 229 234 242 253 265 270 271 271 263 249 241 240 239 237 240 246 248 249 251 256 263 270 274 275 274 270 258 248 247 250 254 258 262 265 268 271 274 277 280 283 285 284 282 280 277 274 272 273 274 277 279 282 284 287 289 292 294 298 302 305 308 311 314 315 315 315 315 316 316 317 319 321 323 325
246 236 235 241 245 243 235 229 227 227 228 228 231 238 250 260 265 266 269 269 258 249 247 248 248 249 252 256 259 262 267 269 271 272 274 277 278 274 265 260 260 264 267 271 273 274 276 277 278 280 281 282 282 283 284 284 283 281 281 282 281 281 282 284 287 291 294 298 303 306 308 310 311 313 314 315 315 315 315 315 317 321 324 325 324
254 246 241 240 238 228 215 214 219 225 229 230 232 239 248 253 254 252 251 253 255 253 253 255 259 262 265 268 270 271 269 267 269 274 280 284 287 284 277 274 273 275 277 279 280 282 284 283 281 281 283 282 279 279 281 283 283 284 286 288 288 288 289 291 295 298 301 304 307 309 309 310 311 312 314 316 316 315 316 318 321 324 324 321 320
263 256 249 245 244 243 238 234 233 238 244 244 244 248 252 253 255 255 251 248 252 258 260 260 266 273 277 276 272 269 267 270 278 285 285 279 267 261 267 273 276 278 280 282 285 287 288 284 279 276 276 276 279 283 288 291 292 295 298 298 296 295 296 298 301 303 305 307 309 310 309 309 311 312 314 316 316 316 318 322 324 324 321 319 320
265 263 256 251 249 249 248 246 245 250 256 257 255 255 259 263 265 263 254 246 245 250 254 259 269 278 278 275 277 280 280 280 282 274 258 249 248 254 264 272 277 279 281 285 289 292 294 292 290 290 290 290 292 296 298 299 299 301 302 300 297 297 298 299 301 304 306 308 309 310 309 310 312 312 313 315 316 318 323 327 327 325 323 322 320
263 263 259 253 250 250 253 254 251 248 250 253 254 255 260 265 262 248 236 232 234 241 251 263 276 283 281 284 294 296 282 260 237 232 241 252 260 264 268 275 281 285 289 292 295 300 308 316 320 317 311 307 303 296 291 290 292 293 294 294 293 295 298 300 301 303 305 307 310 312 312 312 313 314 317 319 321 325 333 337 332 325 321 318 315
Height
1575 1577 1578 1580 1581 1583 1584 1586 1588 1589 1590 1592 1593 1594 1595 1596 1597 1598 1599 1600 1601 1602 1602 1603 1604 1605 1605 1606 1607 1608 1608 1609 1610 1610 1611 1612 1612 1613 1613 1614 1614 1614 1615 1615 1616 1616 1616 1616 1616 1616 1616 1616 1616 1616 1616 1616 1615 1615 1615 1615 1615 1615 1614 1614 1613 1612 1611 1611 1610 1609 1609 1608 1607 1606 1605 1604 1603 1602 1601 1600 1599 1598 1596 1595 1593
1574 1576 1578 1579 1581 1582 1584 1585 1587 1588 1589 1591 1592 1593 1594 1595 1597 1598 1599 1600 1601 1601 1602 1603 1603 1604 1605 1605 1606 1607 1608 1608 1609 1610 1610 1611 1612 1612 1613 1613 1614 1614 1614 1615 1615 1615 1615 1615 1615 1615 1615 1615 1615 1615 1615 1615 1615 1614 1614 1614 1614 1614 1614 1613 1612 1611 1611 1610 1609 1609 1608 1607 1606 1605 1604 1603 1602 1601 1600 1599 1599 1598 1596 1594 1593
1573 1575 1577 1579 1580 1581 1583 1584 1586 1587 1589 1590 1591 1593 1594 1595 1596 1597 1598 1599 1600 1601 1602 1602 1603 1604 1604 1605 1605 1606 1607 1607 1608 1609 1609 1610 1611 1611 1612 1612 1613 1613 1613 1614 1614 1614 1614 1614 1614 1614 1614 1614 1614 1614 1614 1615 1615 1615 1614 1614 1614 1613 1613 1612 1612 1611 1610 1609 1609 1608 1607 1606 1605 1604 1603 1602 1601 1600 1599 1598 1598 1596 1595 1594 1592
1573 1574 1576 1578 1579 1581 1582 1583 1585 1586 1588 1589 1591 1592 1593 1594 1595 1597 1598 1599 1599 1600 1601 1602 1602 1603 1604 1604 1605 1606 1606 1607 1608 1608 1609 1609 1610 1611 1611 1611 1612 1612 1612 1613 1613 1613 1613 1614 1614 1614 1614 1614 1614 1614 1614 1614 1614 1614 1614 1614 1613 1613 1613 1612 1611 1611 1610 1609 1608 1607 1606 1605 1604 1603 1602 1601 1600 1599 1598 1597 1596 1595 1594 1592 1591
1573 1574 1576 1577 1578 1580 1581 1583 1584 1585 1587 1589 1590 1591 1593 1594 1595 1596 1597 1598 1598 1599 1600 1601 1602 1603 1603 1604 1604 1605 1606 1606 1607 1608 1608 1609 1609 1610 1610 1611 1611 1611 1612 1612 1612 1612 1613 1613 1613 1613 1613 1613 1613 1613 1613 1613 1613 1613 1613 1613 1613 1612 1612 1611 1611 1610 1609 1608 1607 1606 1605 1604 1602 1602 1601 1600 1599 1597 1597 1595 1594 1593 1592 1591 1590
1572 1574 1575 1576 1578 1579 1580 1582 1584 1585 1587 1588 1590 1591 1592 1593 1594 1595 1596 1597 1598 1599 1599 1600 1601 1602 1603 1603 1604 1604 1605 1606 1607 1607 1608 1608 1609 1609 1610 1610 1611 1611 1611 1611 1611 1611 1612 1612 1612 1612 1612 1612 1612 1612 1612 1612 1612 1612 1612 1611 1611 1611 1610 1610 1609 1609 1608 1607 1606 1604 1604 1603 1601 1600 1600 1599 1597 1596 1595 1593 1592 1592 1590 1589 1588
1572 1573 1575 1576 1577 1579 1580 1581 1583 1585 1586 1587 1589 1590 1591 1592 1593 1594 1595 1596 1597 1597 1598 1599 1600 1601 1602 1602 1603 1603 1604 1605 1606 1606 1607 1608 1608 1609 1609 1609 1610 1610 1610 1610 1610 1611 1611 1611 1611 1611 1611 1611 1611 1611 1611 1611 1610 1610 1610 1610 1610 1609 1609 1608 1608 1607 1606 1606 1605 1603 1602 1601 1600 1599 1598 1597 1596 1595 1593 1592 1590 1589 1588 1587 1586
1570 1572 1574 1575 1577 1578 1579 1581 1582 1584 1586 1587 1588 1590 1590 1591 1592 1593 1594 1594 1595 1596 1597 1598 1599 1599 1600 1601 1601 1602 1603 1604 1605 1605 1606 1607 1607 1608 1608 1608 1609 1609 1609 1609 1610 1610 1610 1610 1610 1610 1610 1610 1609 1609 1610 1610 1609 1609 1609 1609 1608 1608 1607 1607 1606 1606 1605 1604 1603 1602 1601 1600 1599 1598 1597 1596 1595 1594 1592 1591 1589 1588 1587 1585 1584
1570 1571 1573 1574 1576 1577 1579 1580 1581 1583 1585 1586 1587 1588 1589 1590 1590 1591 1592 1593 1594 1595 1595 1596 1597 1598 1598 1599 1600 1601 1601 1602 1603 1604 1604 1605 1606 1606 1607 1607 1607 1608 1608 1608 1609 1609 1609 1609 1609 1609 1609 1608 1608 1608 1608 1608 1608 1608 1608 1607 1607 1606 1606 1605 1605 1604 1603 1602 1601 1600 1599 1598 1597 1596 1595 1594 1593 1592 1591 1590 1588 1587 1585 1583 1582
1569 1571 1572 1573 1575 1576 1577 1579 1580 1582 1583 1584 1586 1587 1588 1589 1589 1589 1590 1591 1593 1593 1594 1595 1595 1596 1597 1598 1599 1599 1600 1601 1601 1602 1603 1603 1604 1605 1605 1606 1606 1607 1607 1607 1607 1608 1608 1608 1608 1608 1607 1607 1607 1607 1606 1606 1606 1606 1606 1606 1606 1605 1604 1603 1603 1602 1601 1600 1599 1598 1597 1596 1596 1595 1594 1593 1592 1590 1589 1588 1586 1585 1583 1580 1579
1566 1569 1571 1572 1573 1575 1576 1577 1578 1580 1581 1582 1584 1585 1586 1587 1588 1588 1589 1590 1592 1592 1592 1593 1593 1594 1595 1596 1597 1597 1598 1599 1600 1601 1601 1602 1603 1603 1604 1604 1605 1605 1605 1605 1606 1606 1606 1606 1606 1606 1606 1605 1605 1605 1604 1605 1605 1605 1605 1605 1604 1603 1602 1602 1601 1600 1599 1598 1597 1597 1595 1594 1594 1593 1592 1591 1590 1589 1588 1586 1585 1583 1581 1579 1576
1563 1566 1568 1570 1571 1572 1574 1575 1576 1577 1578 1579 1580 1581 1583 1584 1585 1587 1587 1589 1590 1590 1591 1591 1591 1592 1593 1594 1595 1595 1596 1597 1598 1599 1599 1600 1601 1601 1602 1603 1603 1603 1604 1604 1604 1604 1604 1604 1604 1604 1604 1603 1603 1603 1603 1603 1603 1603 1603 1603 1602 1602 1601 1600 1599 1598 1597 1596 1595 1595 1594 1593 1592 1591 1590 1589 1588 1587 1586 1585 1584 1582 1580 1578 1576
1559 1562 1564 1567 1568 1569 1571 1572 1573 1574 1574 1575 1576 1577 1579 1580 1582 1584 1586 1587 1588 1588 1589 1590 1590 1591 1591 1592 1593 1594 1594 1595 1596 1596 1597 1598 1599 1599 1600 1601 1601 1601 1601 1602 1602 1602 1602 1602 1602 1602 1602 1601 1601 1601 1601 1601 1601 1601 1601 1600 1600 1600 1599 1598 1597 1596 1595 1594 1593 1593 1592 1591 1590 1589 1589 1587 1586 1585 1583 1582 1582 1580 1578 1577 1575
1555 1557 1560 1563 1565 1566 1567 1568 1568 1570 1570 1572 1573 1574 1575 1577 1579 1581 1584 1585 1586 1586 1587 1588 1589 1589 1590 1590 1591 1592 1592 1593 1594 1595 1595 1596 1597 1597 1598 1599 1599 1599 1599 1599 1600 1600 1600 1600 1599 1599 1599 1599 1599 1599 1599 1599 1599 1599 1598 1598 1598 1597 1596 1596 1595 1594 1594 1593 1591 1590 1590 1589 1588 1588 1587 1586 1584 1583 1581 1580 1579 1578 1576 1575 1573
1552 1554 1557 1559 1561 1563 1563 1564 1564 1566 1567 1568 1569 1571 1572 1574 1576 1578 1580 1582 1583 1584 1585 1586 1586 1587 1587 1587 1588 1589 1590 1591 1592 1592 1593 1594 1594 1595 1596 1596 1597 1597 1597 1597 1597 1597 1597 1597 1597 1597 1597 1597 1597 1597 1597 1597 1597 1596 1596 1596 1595 1595 1594 1593 1592 1592 1592 1591 1590 1589 1588 1587 1586 1586 1585 1583 1582 1581 1579 1578 1577 1575 1574 1572 1571
1553 1555 1555 1555 1558 1560 1561 1561 1561 1562 1563 1564 1565 1566 1568 1570 1572 1574 1575 1578 1580 1581 1582 1583 1583 1584 1584 1584 1585 1586 1587 1588 1589 1590 1591 1591 1592 1592 1593 1593 1594 1594 1594 1594 1594 1594 1595 1595 1594 1595 1595 1595 1594 1594 1594 1594 1594 1594 1594 1593 1593 1593 1592 1591 1590 1590 1589 1589 1588 1587 1586 1585 1584 1583 1582 1581 1580 1578 1577 1576 1575 1574 1572 1570 1569
1555 1556 1554 1553 1555 1557 1558 1558 1559 1559 1560 1560 1561 1562 1564 1566 1568 1570 1572 1574 1577 1578 1579 1580 1581 1581 1581 1582 1582 1583 1584 1585 1585 1586 1587 1588 1589 1590 1590 1591 1591 1592 1592 1591 1591 1592 1592 1592 1592 1592 1592 1592 1592 1592 1592 1591 1591 1591 1591 1591 1591 1590 1589 1588 1588 1587 1587 1586 1585 1585 1584 1583 1582 1581 1580 1578 1577 1576 1575 1574 1573 1572 1570 1568 1566
1553 1554 1553 1553 1554 1554 1554 1555 1556 1557 1558 1558 1559 1560 1561 1562 1564 1567 1570 1572 1574 1575 1576 1577 1578 1578 1578 1579 1579 1580 1580 1581 1582 1583 1584 1585 1586 1587 1587 1587 1588 1589 1589 1589 1589 1589 1590 1590 1590 1590 1589 1589 1589 1589 1589 1589 1589 1589 1588 1588 1588 1587 1586 1586 1585 1584 1584 1583 1583 1582 1581 1580 1579 1578 1577 1576 1575 1574 1573 1572 1571 1570 1569 1567 1565
1550 1551 1552 1552 1553 1553 1552 1553 1554 1556 1557 1558 1559 1560 1559 1560 1562 1564 1567 1569 1570 1572 1573 1573 1574 1574 1575 1575 1576 1577 1577 1578 1578 1579 1580 1581 1582 1583 1584 1584 1585 1586 1586 1586 1586 1587 1587 1587 1587 1587 1587 1587 1587 1586 1586 1586 1586 1586 1586 1585 1585 1584 1583 1583 1582 1581 1580 1580 1580 1579 1578 1577 1577 1576 1575 1574 1573 1572 1571 1570 1570 1569 1567 1566 1564
1548 1549 1550 1551 1552 1551 1550 1551 1552 1553 1555 1557 1559 1559 1558 1560 1563 1564 1564 1564 1566 1568 1568 1569 1570 1571 1571 1572 1573 1574 1574 1574 1575 1576 1577 1578 1579 1580 1581 1581 1582 1583 1583 1584 1584 1584 1584 1584 1584 1584 1584 1584 1584 1584 1584 1583 1583 1583 1583 1582 1582 1581 1581 1580 1579 1578 1578 1577 1577 1576 1576 1575 1575 1574 1573 1572 1571 1571 1570 1569 1568 1567 1566 1564 1563
1547 1548 1548 1550 1551 1550 1550 1551 1551 1551 1553 1555 1557 1558 1558 1560 1562 1562 1562 1562 1563 1564 1565 1565 1567 1569 1569 1570 1571 1571 1572 1572 1573 1573 1574 1575 1576 1577 1578 1578 1579 1579 1580 1581 1581 1582 1582 1582 1582 1582 1582 1582 1582 1582 1581 1581 1581 1580 1580 1580 1580 1579 1578 1578 1577 1576 1576 1575 1575 1575 1574 1574 1573 1572 1571 1571 1570 1569 1569 1568 1567 1566 1564 1563 1561
1547 1547 1548 1549 1550 1550 1551 1551 1551 1552 1553 1554 1556 1557 1557 1558 1558 1558 1560 1562 1562 1563 1563 1564 1565 1567 1568 1569 1569 1570 1570 1570 1571 1572 1572 1573 1573 1574 1576 1576 1577 1577 1577 1578 1579 1579 1580 1580 1580 1580 1581 1581 1581 1580 1580 1580 1579 1579 1579 1578 1578 1578 1577 1576 1575 1575 1574 1574 1574 1574 1573 1572 1571 1570 1569 1569 1568 1568 1567 1566 1565 1564 1563 1561 1560
1548 1548 1549 1549 1550 1550 1551 1551 1552 1553 1554 1555 1557 1557 1557 1557 1557 1558 1559 1560 1562 1563 1564 1564 1565 1567 1568 1568 1569 1569 1569 1569 1569 1570 1571 1571 1571 1572 1573 1574 1575 1575 1575 1576 1577 1577 1578 1578 1578 1579 1579 1579 1579 1579 1579 1578 1578 1578 1578 1577 1577 1576 1575 1574 1574 1573 1573 1572 1572 1572 1572 1571 1570 1569 1568 1567 1567 1566 1565 1564 1563 1562 1561 1560 1559
1549 1550 1550 1551 1551 1552 1553 1553 1554 1555 1556 1557 1558 1559 1559 1559 1559 1559 1559 1559 1561 1564 1565 1566 1566 1568 1568 1569 1569 1570 1569 1569 1569 1570 1570 1570 1571 1571 1572 1573 1573 1574 1574 1575 1576 1576 1577 1577 1577 1577 1577 1578 1578 1578 1578 1577 1577 1577 1577 1576 1576 1575 1574 1573 1573 1572 1572 1571 1571 1571 1570 1569 1568 1567 1566 1566 1565 1564 1562 1561 1561 1560 1559 1558 1557
1550 1550 1551 1552 1553 1554 1555 1556 1556 1556 1558 1559 1560 1561 1561 1561 1560 1561 1560 1560 1561 1564 1566 1567 1567 1568 1569 1569 1569 1569 1569 1570 1570 1570 1570 1571 1571 1572 1572 1573 1573 1573 1574 1575 1575 1576 1576 1576 1576 1576 1576 1576 1576 1576 1576 1576 1576 1576 1575 1575 1575 1574 1573 1572 1571 1570 1570 1570 1569 1569 1568 1567 1566 1565 1564 1564 1563 1561 1560 1559 1559 1558 1556 1556 1555
1550 1551 1552 1552 1553 1555 1556 1557 1557 1558 1559 1560 1561 1561 1561 1561 1561 1562 1561 1561 1562 1563 1565 1567 1568 1568 1569 1569 1568 1568 1569 1570 1570 1570 1570 1571 1571 1572 1572 1573 1573 1573 1574 1574 1574 1575 1575 1575 1575 1575 1575 1575 1575 1575 1575 1575 1575 1575 1575 1574 1574 1572 1571 1570 1569 1569 1569 1568 1567 1567 1566 1565 1564 1563 1563 1562 1560 1559 1558 1557 1556 1555 1554 1553 1552
1552 1553 1554 1554 1555 1556 1556 1557 1558 1558 1559 1560 1560 1561 1561 1561 1562 1563 1563 1563 1563 1564 1566 1568 1568 1568 1568 1568 1568 1568 1569 1570 1570 1570 1570 1570 1571 1571 1572 1572 1572 1573 1573 1573 1573 1573 1573 1573 1573 1573 1573 1573 1573 1573 1573 1573 1573 1574 1574 1573 1572 1570 1569 1569 1568 1568 1567 1567 1566 1565 1564 1563 1562 1561 1560 1559 1558 1557 1556 1555 1554 1553 1552 1551 1550
1553 1554 1555 1556 1557 1557 1557 1557 1557 1558 1559 1560 1560 1560 1561 1562 1563 1563 1564 1564 1564 1565 1567 1568 1568 1568 1568 1568 1568 1568 1569 1569 1570 1570 1570 1570 1570 1571 1571 1571 1571 1571 1571 1571 1571 1571 1571 1571 1571 1571 1571 1572 1572 1571 1570 1570 1571 1571 1571 1570 1569 1568 1568 1567 1567 1566 1566 1565 1564 1563 1562 1562 1561 1560 1558 1557 1556 1556 1555 1553 1552 1551 1550 1549 1548
1553 1554 1554 1556 1557 1557 1557 1557 1558 1558 1559 1560 1561 1561 1562 1563 1564 1564 1564 1565 1565 1566 1568 1568 1568 1568 1568 1568 1569 1569 1569 1569 1569 1569 1569 1569 1569 1570 1569 1569 1569 1569 1569 1569 1569 1569 1569 1569 1570 1570 1570 1570 1570 1569 1568 1568 1568 1569 1568 1567 1566 1566 1566 1565 1565 1565 1564 1563 1562 1561 1561 1560 1559 1558 1557 1556 1555 1554 1553 1552 1551 1550 1548 1547 1546
1553 1553 1554 1555 1556 1557 1557 1558 1558 1559 1560 1560 1561 1562 1563 1564 1565 1565 1565 1566 1566 1567 1567 1568 1568 1568 1569 1569 1569 1569 1569 1569 1569 1569 1569 1568 1568 1568 1568 1568 1567 1567 1567 1567 1567 1567 1567 1568 1568 1568 1568 1568 1568 1567 1567 1567 1567 1567 1567 1566 1564 1564 1564 1563 1563 1562 1562 1561 1561 1560 1559 1558 1557 1556 1555 1554 1554 1553 1552 1551 1550 1549 1547 1546 1545
1553 1553 1554 1555 1556 1557 1558 1558 1558 1559 1560 1560 1561 1562 1563 1564 1565 1565 1566 1566 1566 1566 1567 1567 1567 1568 1568 1569 1569 1569 1569 1569 1568 1568 1568 1567 1567 1566 1566 1566 1565 1565 1566 1566 1566 1566 1566 1567 1567 1567 1567 1567 1566 1566 1566 1565 1565 1565 1565 1564 1563 1562 1562 1561 1560 1560 1560 1559 1559 1558 1558 1556 1555 1554 1554 1553 1552 1551 1550 1549 1548 1547 1546 1545 1543
1553 1553 1554 1555 1555 1556 1558 1559 1558 1559 1559 1560 1561 1562 1562 1563 1564 1564 1565 1565 1565 1566 1566 1566 1566 1566 1567 1568 1568 1568 1568 1568 1567 1567 1566 1566 1566 1565 1565 1564 1564 1564 1564 1564 1564 1564 1565 1566 1566 1566 1566 1565 1565 1564 1564 1564 1563 1563 1562 1562 1561 1561 1560 1560 1559 1558 1558 1557 1557 1557 1556 1555 1554 1553 1552 1551 1550 1549 1548 1548 1547 1546 1545 1543 1542
1553 1554 1554 1555 1554 1556 1558 1559 1559 1559 1559 1560 1561 1561 1562 1563 1563 1564 1564 1564 1565 1565 1565 1565 1565 1565 1566 1566 1566 1567 1566 1566 1565 1565 1564 1564 1564 1563 1563 1563 1563 1563 1563 1564 1564 1564 1564 1565 1565 1565 1564 1564 1563 1563 1563 1562 1562 1562 1561 1561 1560 1559 1559 1559 1558 1557 1557 1556 1555 1555 1554 1553 1553 1552 1551 1550 1549 1548 1547 1546 1545 1544 1542 1541 1540
1554 1555 1555 1555 1555 1556 1557 1558 1558 1558 1559 1560 1561 1561 1561 1562 1562 1563 1564 1564 1564 1564 1565 1565 1564 1564 1565 1565 1565 1565 1565 1564 1564 1563 1563 1562 1562 1561 1561 1561 1561 1562 1563 1563 1563 1564 1564 1564 1564 1563 1563 1563 1562 1562 1562 1561 1561 1561 1560 1560 1559 1559 1558 1558 1557 1556 1556 1555 1554 1554 1553 1552 1551 1550 1549 1548 1547 1546 1545 1544 1543 1542 1540 1539 1538
1555 1555 1556 1556 1556 1556 1556 1556 1557 1557 1558 1559 1560 1560 1561 1561 1562 1562 1563 1563 1563 1564 1564 1564 1564 1564 1564 1564 1564 1564 1564 1563 1563 1562 1561 1561 1561 1560 1560 1560 1561 1562 1562 1563 1563 1563 1563 1563 1563 1562 1562 1562 1561 1561 1560 1560 1560 1559 1559 1559 1558 1557 1557 1556 1556 1555 1555 1554 1553 1552 1551 1550 1549 1548 1548 1546 1545 1544 1543 1542 1541 1540 1539 1538 1537
1554 1555 1555 1555 1555 1555 1555 1556 1556 1557 1558 1559 1559 1560 1561 1561 1561 1562 1562 1562 1562 1563 1563 1563 1563 1563 1563 1563 1563 1563 1563 1562 1562 1561 1561 1561 1560 1560 1560 1560 1561 1562 1562 1562 1562 1562 1562 1562 1561 1561 1561 1560 1560 1559 1559 1559 1558 1558 1558 1557 1557 1556 1556 1555 1554 1554 1553 1552 1551 1550 1549 1548 1547 1547 1546 1545 1544 1543 1542 1541 1540 1539 1538 1537 1536
1553 1553 1553 1553 1554 1554 1555 1556 1556 1556 1557 1558 1558 1559 1560 1560 1561 1561 1561 1562 1562 1562 1562 1563 1562 1562 1563 1563 1562 1562 1562 1562 1561 1561 1561 1561 1561 1560 1560 1561 1561 1561 1561 1560 1560 1560 1560 1560 1560 1560 1560 1559 1558 1558 1557 1557 1557 1556 1556 1556 1555 1555 1555 1554 1553 1552 1551 1550 1548 1547 1547 1546 1546 1545 1544 1543 1543 1542 1541 1540 1539 1538 1537 1536 1534
1552 1552 1552 1552 1552 1552 1554 1555 1555 1556 1556 1556 1557 1558 1558 1559 1559 1560 1560 1561 1561 1561 1561 1561 1561 1562 1562 1562 1562 1562 1562 1561 1561 1561 1561 1561 1561 1561 1560 1560 1560 1559 1559 1559 1560 1559 1558 1559 1558 1558 1558 1557 1557 1556 1556 1556 1555 1555 1554 1554 1554 1553 1552 1551 1550 1549 1548 1547 1546 1546 1545 1544 1544 1543 1542 1542 1541 1540 1539 1538 1537 1535 1534 1533 1532
1551 1551 1551 1551 1551 1552 1553 1553 1554 1555 1555 1556 1556 1556 1557 1557 1558 1558 1559 1559 1560 1560 1560 1560 1559 1560 1560 1560 1560 1561 1561 1561 1560 1560 1560 1560 1561 1561 1561 1560 1559 1558 1558 1558 1558 1558 1557 1557 1557 1556 1556 1555 1555 1555 1554 1554 1554 1553 1553 1552 1552 1551 1550 1549 1548 1547 1546 1545 1545 1544 1543 1542 1541 1541 1541 1540 1539 1538 1537 1536 1534 1533 1531 1530 1529
1549 1550 1550 1549 1550 1551 1551 1552 1553 1553 1554 1554 1555 1555 1556 1556 1556 1557 1557 1558 1558 1558 1558 1558 1558 1558 1558 1559 1559 1559 1559 1559 1559 1559 1559 1559 1559 1561 1561 1559 1558 1557 1556 1556 1556 1556 1556 1555 1555 1554 1554 1554 1553 1553 1552 1552 1552 1551 1551 1550 1550 1549 1548 1546 1545 1545 1544 1544 1543 1542 1541 1540 1539 1539 1539 1538 1537 1536 1535 1533 1532 1530 1529 1527 1526
1548 1549 1549 1548 1549 1550 1550 1551 1552 1552 1553 1553 1554 1554 1555 1555 1555 1555 1556 1556 1557 1557 1557 1556 1557 1557 1557 1557 1557 1557 1557 1557 1557 1558 1558 1557 1558 1559 1559 1558 1556 1555 1554 1554 1554 1554 1554 1553 1552 1552 1552 1551 1551 1550 1550 1549 1549 1548 1548 1548 1547 1547 1546 1544 1544 1543 1543 1542 1541 1540 1539 1538 1538 1537 1537 1536 1534 1533 1532 1530 1529 1527 1526 1525 1523
1547 1547 1547 1548 1548 1549 1549 1550 1550 1551 1551 1552 1552 1552 1553 1553 1553 1554 1554 1555 1555 1556 1555 1555 1556 1556 1556 1556 1556 1556 1556 1555 1555 1556 1555 1555 1556 1556 1555 1554 1553 1552 1552 1551 1550 1550 1551 1550 1550 1549 1549 1548 1548 1548 1547 1547 1546 1546 1545 1545 1544 1544 1543 1543 1542 1542 1541 1540 1539 1538 1537 1536 1536 1535 1534 1533 1532 1530 1529 1528 1526 1525 1523 1522 1521
1546 1545 1546 1547 1547 1547 1548 1549 1549 1549 1550 1550 1550 1551 1551 1551 1551 1552 1552 1553 1554 1554 1554 1554 1555 1555 1555 1554 1554 1554 1553 1553 1553 1553 1552 1552 1553 1552 1552 1551 1550 1549 1549 1548 1547 1547 1548 1547 1547 1547 1546 1546 1546 1545 1545 1544 1543 1543 1543 1542 1541 1541 1541 1541 1540 1540 1539 1538 1537 1536 1535 1534 1533 1532 1531 1530 1529 1527 1526 1525 1523 1522 1521 1520 1518
1544 1544 1544 1545 1545 1546 1546 1547 1547 1547 1548 1548 1548 1549 1549 1549 1550 1550 1551 1551 1552 1553 1553 1553 1553 1553 1553 1552 1552 1551 1551 1550 1550 1550 1550 1550 1550 1550 1549 1548 1548 1547 1546 1546 1545 1545 1545 1544 1544 1544 1544 1544 1543 1543 1542 1541 1541 1540 1540 1539 1539 1539 1539 1538 1538 1537 1537 1536 1535 1534 1533 1532 1530 1529 1528 1527 1526 1524 1523 1522 1520 1519 1518 1517 1516
1542 1542 1541 1542 1543 1544 1544 1544 1545 1545 1545 1546 1546 1546 1546 1547 1548 1548 1549 1550 1550 1551 1551 1552 1551 1551 1551 1550 1550 1549 1549 1548 1548 1548 1548 1548 1548 1548 1547 1546 1545 1545 1544 1544 1543 1543 1542 1542 1542 1541 1541 1541 1540 1540 1539 1539 1538 1538 1537 1537 1537 1537 1537 1536 1536 1535 1534 1534 1532 1531 1530 1529 1527 1526 1525 1524 1523 1522 1520 1519 1518 1517 1516 1515 1514
1539 1539 1539 1540 1541 1541 1541 1541 1541 1542 1542 1543 1544 1544 1545 1545 1546 1546 1547 1548 1548 1549 1549 1549 1549 1549 1549 1548 1548 1548 1547 1547 1547 1546 1546 1546 1546 1545 1545 1544 1543 1542 1542 1541 1541 1541 1540 1540 1540 1539 1539 1538 1537 1537 1537 1536 1535 1535 1535 1535 1535 1535 1535 1534 1534 1533 1532 1531 1530 1529 1528 1526 1525 1524 1523 1522 1521 1520 1518 1517 1516 1515 1513 1512 1511
1536 1537 1538 1539 1539 1538 1538 1538 1538 1539 1539 1540 1541 1542 1543 1543 1543 1544 1545 1546 1546 1547 1547 1547 1547 1547 1547 1547 1547 1546 1546 1546 1545 1544 1544 1543 1543 1543 1542 1541 1540 1540 1539 1538 1538 1538 1538 1538 1537 1537 1537 1536 1535 1535 1535 1534 1533 1533 1533 1533 1533 1533 1533 1532 1532 1531 1530 1529 1528 1527 1525 1524 1523 1522 1521 1520 1518 1517 1516 1515 1513 1512 1511 1511 1510
1533 1534 1535 1535 1535 1536 1536 1536 1537 1537 1537 1537 1538 1539 1540 1541 1542 1543 1543 1543 1544 1544 1545 1545 1545 1545 1545 1545 1544 1544 1543 1543 1542 1542 1542 1542 1541 1540 1540 1539 1538 1538 1537 1536 1536 1536 1536 1535 1535 1534 1534 1534 1533 1533 1533 1532 1531 1531 1531 1531 1531 1531 1531 1530 1530 1529 1528 1527 1526 1525 1523 1522 1521 1519 1518 1517 1516 1515 1514 1512 1511 1510 1510 1509 1508
1531 1531 1532 1531 1532 1533 1534 1534 1535 1536 1536 1536 1536 1537 1538 1539 1540 1541 1542 1542 1542 1542 1542 1542 1543 1543 1543 1542 1542 1541 1541 1541 1540 1541 1540 1540 1539 1538 1538 1537 1536 1535 1535 1534 1534 1534 1533 1533 1533 1532 1532 1532 1531 1531 1531 1530 1530 1529 1529 1530 1530 1529 1529 1528 1528 1527 1527 1525 1524 1523 1521 1520 1519 1518 1516 1515 1514 1513 1511 1510 1509 1509 1508 1508 1507
1527 1528 1528 1528 1529 1530 1530 1531 1532 1534 1534 1533 1534 1536 1537 1538 1538 1539 1539 1540 1540 1540 1540 1540 1541 1541 1541 1540 1540 1540 1540 1539 1539 1539 1538 1538 1537 1537 1536 1535 1535 1534 1533 1533 1532 1532 1531 1531 1531 1530 1530 1530 1530 1530 1529 1529 1528 1528 1528 1528 1528 1527 1527 1527 1526 1525 1524 1523 1522 1520 1519 1518 1517 1516 1514 1513 1512 1510 1509 1508 1508 1507 1507 1506 1505
1524 1524 1525 1526 1526 1527 1527 1528 1529 1531 1532 1532 1533 1534 1535 1536 1536 1536 1537 1537 1538 1538 1538 1539 1539 1539 1539 1539 1539 1539 1539 1538 1537 1537 1536 1536 1536 1535 1535 1534 1533 1532 1532 1531 1531 1530 1530 1530 1529 1529 1529 1529 1529 1528 1528 1527 1527 1527 1527 1526 1526 1525 1525 1524 1524 1523 1522 1521 1519 1518 1517 1516 1514 1513 1512 1511 1509 1508 1507 1507 1506 1506 1505 1504 1503